Regional Weather Roundup
Issued by NWS

Home | Current Version | Previous Version | Graphics & Text | Print | Product List | Glossary On
Versions: 1 2 3 4 5 6 7 8 9 10 11 12 13 14 15 16 17 18 19 20 21 22 23 24 25 26 27 28 29 30 31 32 33 34 35 36 37 38 39 40 41 42 43 44 45 46 47 48 49 50
000
ASUS44 KMEG 070400
RWRTN
TENNESSEE HOURLY STATE WEATHER ROUNDUP
NATIONAL WEATHER SERVICE MEMPHIS TN
1000 PM CST FRI MAR 06 2015

TNZ002-004-019-021-049-052-054-088>092-070500-
WEST TENNESSEE

CITY           SKY/WX    TMP DP  RH WIND       PRES   REMARKS
MEMPHIS INTL   CLEAR     28  20  71 S6        30.48F WCI  22
NWS MEMPHIS      N/A     27 N/A N/A MISG        N/A
JACKSON        CLEAR     24  16  71 CALM      30.48S
DYERSBURG      PTCLDY    27   5  39 S5        30.49S WCI  21
UNION CITY     CLEAR     16   9  73 S3        30.45F
PARIS          CLEAR     21   9  58 S6        30.45F WCI  14
LEXINGTON      CLEAR     25  16  68 CALM      30.46F
SAVANNAH       CLEAR     25  21  86 CALM      30.48F
$$

TNZ008-025-027-028-033-062-065-066-070500-
NORTH MIDDLE TENNESSEE

CITY           SKY/WX    TMP DP  RH WIND       PRES   REMARKS
NASHVILLE      CLEAR     27  20  75 S5        30.48S WCI  22
CLARKSVILLE    CLEAR     28  11  48 SW5       30.46S WCI  23
COOKEVILLE     CLEAR     23  21  93 CALM      30.44S
CROSSVILLE     FAIR      25  18  74 SW3       30.41S
$$

TNZ061-075-076-078-094-096-097-070500-
SOUTH MIDDLE TENNESSEE

CITY           SKY/WX    TMP DP  RH WIND       PRES   REMARKS
FAYETTEVILLE   CLEAR     25  19  80 NE8G23      N/A  WCI  16
TULLAHOMA      CLEAR     25  21  86 CALM        N/A
WINCHESTER     CLEAR     25  21  86 CALM      30.48R
COLUMBIA         N/A     25  25 100 CALM      30.45F
SHELBYVILLE    CLEAR     25  25 100 E3        30.48F
$$

TNZ017-018-042-046-047-070500-
NORTHEAST TENNESSEE

CITY           SKY/WX    TMP DP  RH WIND       PRES   REMARKS
TRI CITIES     PTCLDY    25  17  72 CALM      30.41F
ELIZABETHTON   CLEAR     21  19  93 CALM      30.41F
$$

TNZ012-013-036-069-073-074-070500-
CENTRAL EAST TENNESSEE

CITY           SKY/WX    TMP DP  RH WIND       PRES   REMARKS
KNOXVILLE      CLEAR     30  20  66 CALM      30.45S
OAK RIDGE      CLEAR     30  22  72 W3        30.46S
GATLINBURG     CLEAR     25  19  80 CALM      30.45R
$$

TNZ083-085-099-070500-
SOUTHEAST TENNESSEE

CITY           SKY/WX    TMP DP  RH WIND       PRES   REMARKS
CHATTANOOGA    CLEAR     32  25  75 CALM      30.47R
$$

SKY/WX REPORTED AS FAIR MEANS FEW OR NO CLOUDS BELOW
12 THOUSAND FEET.



USA.gov is the U.S. government's official web portal to all federal, state and local government web resources and services.